Theta_e
330 332 332 332 332 331 331 332 333 333 334 336 339 340 339 337 337 339 341 343 344 343 341 341 341 338 339 338 336 334 333 331 329 331 331 331 332 333 331 331 330 326 325 324
331 332 331 332 331 331 331 336 337 334 334 336 337 338 338 337 338 339 339 341 342 342 341 340 338 337 335 333 332 331 329 328 325 324 324 324 324 327 326 324 324 322 320 321
331 332 331 331 331 334 334 332 332 335 334 336 338 338 338 338 338 338 339 340 340 339 337 337 335 334 332 331 330 328 327 326 325 319 323 323 322 322 322 322 321 319 318 316
332 331 330 331 331 330 333 331 331 332 335 338 337 341 340 339 340 339 339 339 337 334 334 333 332 331 328 325 325 326 325 325 323 323 322 321 320 319 318 318 317 316 317 316
332 330 330 332 332 331 332 332 333 333 335 337 337 340 339 335 340 339 337 335 334 332 332 331 329 327 325 324 323 324 324 323 323 322 321 319 318 317 316 316 316 316 316 316
332 332 333 332 331 331 332 335 336 340 337 342 338 341 340 336 339 338 336 334 333 331 331 329 327 325 324 324 323 323 323 322 322 321 319 318 316 317 316 316 315 315 315 315
332 332 332 331 331 335 334 335 338 344 341 341 337 333 341 337 337 337 336 334 332 331 329 328 327 324 323 325 324 322 322 321 320 319 318 316 315 315 315 315 315 315 315 315
333 333 333 332 332 331 330 334 336 337 333 331 336 340 340 337 336 335 334 334 332 330 329 327 326 325 324 325 324 322 321 321 318 318 316 316 315 315 315 314 315 315 315 313
334 336 333 332 331 331 331 335 334 334 335 336 338 339 337 337 337 334 334 333 331 330 328 326 325 326 325 324 324 322 321 319 318 316 315 315 313 313 314 313 313 314 314 315
333 335 332 333 331 334 333 331 332 336 335 332 334 340 343 338 338 336 334 333 332 330 328 326 324 324 325 324 322 322 320 319 317 315 315 314 313 313 313 315 316 315 314 314
333 332 335 331 335 331 333 336 333 334 337 334 332 339 334 337 337 336 334 332 332 329 327 325 323 324 324 323 321 321 319 318 316 315 315 314 313 313 315 316 315 314 314 314
335 334 333 335 333 332 331 331 332 334 334 334 333 339 335 335 335 335 333 331 331 329 327 325 323 324 324 322 321 320 319 317 315 315 315 314 313 315 316 315 315 315 315 314
332 333 335 338 337 335 332 331 330 332 337 337 336 341 335 335 335 334 332 331 330 329 327 325 323 323 323 321 320 319 318 315 315 315 315 313 313 315 315 315 315 315 314 313
337 336 334 334 331 329 333 332 332 333 338 336 336 337 337 336 336 334 333 331 330 328 326 325 324 323 322 321 320 319 318 315 315 315 314 313 313 314 316 315 315 314 314 315
339 334 333 332 330 330 331 331 332 332 333 334 335 333 337 337 336 335 333 331 330 328 324 325 324 323 321 320 320 319 318 316 315 314 314 314 313 314 315 316 316 314 313 314
341 336 334 334 333 331 331 332 332 332 332 333 334 339 335 334 334 334 332 331 330 326 324 324 324 323 321 321 319 319 318 316 315 314 314 314 314 313 314 314 316 315 314 315
337 338 336 335 335 332 333 333 332 332 333 335 336 337 334 334 334 333 332 330 329 325 325 324 325 323 322 321 319 319 317 316 316 315 314 314 314 315 314 314 315 315 314 314
338 339 336 335 335 334 338 334 332 333 334 335 335 335 332 333 333 331 330 331 328 325 324 323 324 323 322 320 320 319 317 317 316 315 314 314 314 315 315 314 315 315 314 315
337 338 336 334 334 334 333 335 334 335 338 336 333 332 331 331 331 331 330 329 326 325 323 323 323 323 323 320 320 319 317 317 315 314 314 314 314 314 314 315 314 316 316 314
338 338 336 333 335 333 339 335 333 333 336 333 328 330 331 331 331 334 331 327 325 325 323 324 323 323 322 321 320 319 318 317 315 314 315 314 313 314 315 315 315 315 316 315
338 336 334 333 335 334 337 334 333 334 338 328 327 326 330 330 334 332 329 326 325 324 324 324 323 323 322 321 321 320 318 317 315 314 315 315 314 315 315 315 316 315 316 317
336 336 334 334 334 333 335 334 332 334 330 329 328 327 328 332 332 330 327 325 324 324 324 323 323 324 323 321 320 320 318 317 315 315 315 315 316 316 316 316 316 316 315 317
334 334 341 336 338 338 334 338 338 332 330 330 330 328 326 330 330 329 325 326 324 322 323 322 322 324 323 322 321 320 318 316 316 316 315 316 315 315 316 316 316 315 316 314
335 336 333 333 333 336 335 335 335 330 332 332 331 329 326 327 329 328 325 327 325 322 323 322 322 322 324 323 321 320 318 316 316 316 315 316 315 315 315 316 315 315 316 315
334 336 334 334 333 335 335 335 334 331 331 332 331 329 327 326 328 327 326 327 325 322 321 321 322 322 323 323 322 321 319 317 317 317 317 317 316 316 315 315 316 316 316 313
329 331 334 335 335 335 334 334 334 332 331 332 330 329 327 325 326 326 327 327 325 322 321 322 323 323 323 322 322 321 320 319 318 318 317 316 315 315 315 315 315 315 316 315
Wind_Speed
17 6 13 12 12 11 5 4 8 6 3 7 11 11 11 10 16 17 18 17 16 16 12 11 11 11 13 14 15 16 16 18 18 17 18 17 16 12 14 13 13 15 15 16
8 6 7 7 5 4 4 23 20 5 5 6 11 11 11 13 15 18 17 16 13 11 11 11 11 11 13 15 15 17 18 20 21 17 18 17 15 13 13 17 16 17 17 15
3 3 5 5 8 18 20 11 4 2 6 7 21 9 6 16 18 17 15 12 11 11 12 11 12 12 13 15 17 18 18 19 22 20 19 18 15 13 14 14 16 18 17 16
3 9 4 11 1 12 9 9 6 3 11 6 15 5 6 3 14 13 13 12 13 12 12 11 11 13 15 16 15 17 18 20 21 23 21 21 18 18 17 16 16 14 13 13
6 10 12 6 9 10 9 10 8 5 14 11 14 2 3 11 16 11 12 11 12 12 11 10 12 13 15 16 15 15 16 18 20 21 22 21 21 17 15 15 15 14 13 14
6 7 9 11 3 4 7 5 4 19 9 6 21 14 8 7 7 10 12 10 9 9 9 10 12 14 15 14 14 14 16 18 20 21 22 22 19 18 17 18 16 16 14 14
9 10 6 3 6 13 13 9 2 5 4 4 7 3 10 8 8 11 10 8 7 6 10 11 13 15 15 14 15 15 16 18 20 21 22 21 19 17 17 17 16 16 15 16
11 9 6 2 7 12 15 8 8 14 11 9 16 5 7 12 13 12 9 7 6 8 10 12 13 14 14 13 15 15 17 16 23 21 20 17 16 14 14 16 15 16 16 16
6 11 7 6 4 6 10 6 11 9 17 10 4 11 12 9 11 11 9 6 6 6 7 10 13 13 13 14 12 15 16 19 18 19 18 15 16 18 17 16 18 16 16 17
4 3 5 8 9 4 4 6 8 6 7 12 6 14 7 10 10 8 7 5 5 4 6 11 12 12 13 13 13 13 15 15 16 17 14 18 15 15 16 15 17 18 17 16
4 4 7 5 5 10 4 2 3 4 5 7 8 7 6 8 11 8 5 5 4 2 8 11 11 12 12 13 12 13 14 16 17 16 12 16 17 16 15 16 17 17 16 17
3 3 3 4 5 1 3 6 4 7 7 3 7 4 5 7 13 9 6 4 5 4 7 10 11 11 12 12 12 13 14 15 16 14 13 15 16 14 14 17 17 17 17 16
6 5 8 3 2 3 4 5 1 1 9 6 10 3 4 10 11 9 7 7 5 3 7 9 11 11 11 10 11 12 13 14 15 12 12 16 16 13 15 14 17 16 16 17
2 1 7 7 10 6 3 4 1 2 8 9 7 7 8 8 8 6 7 4 2 3 6 9 9 10 10 10 9 10 12 13 13 11 12 13 15 14 15 15 16 18 16 16
3 7 5 4 4 6 4 5 4 7 7 6 11 8 7 10 9 9 6 4 1 3 6 7 7 8 9 9 9 10 10 11 12 11 11 12 15 13 14 16 14 17 16 14
5 3 5 6 4 7 7 2 6 2 4 5 6 13 8 6 8 9 7 3 1 5 5 6 6 6 8 9 9 9 9 10 11 10 10 11 11 15 14 15 15 15 19 13
8 4 5 9 1 6 10 7 2 2 3 5 9 9 5 3 7 8 7 2 4 3 4 4 4 4 6 8 9 9 8 9 10 9 9 10 11 11 13 14 14 14 17 15
8 7 5 5 3 9 9 5 3 4 2 2 4 4 3 2 7 8 3 7 2 1 3 3 2 2 4 7 8 8 7 9 9 8 8 9 9 10 11 13 13 13 14 13
7 7 2 6 10 5 10 6 3 2 5 2 6 3 2 3 5 5 4 3 3 2 2 2 2 2 3 6 7 8 7 9 8 7 8 8 8 10 11 11 12 12 11 12
4 6 5 8 6 5 10 9 6 1 4 5 4 2 2 4 10 11 9 5 5 2 2 2 2 2 3 4 6 7 7 9 8 6 7 7 8 9 10 11 11 11 10 10
9 7 8 8 6 1 11 10 7 7 6 5 5 3 3 5 11 12 7 5 4 2 2 3 2 1 1 3 5 7 7 8 8 6 6 7 7 8 9 10 11 11 10 8
5 5 7 6 5 9 11 9 4 9 8 7 4 3 3 5 7 7 6 5 3 3 1 2 2 2 1 2 4 6 6 6 7 6 6 6 8 8 8 10 10 7 11 9
7 8 4 4 5 4 10 2 9 10 8 7 5 3 3 8 9 7 6 5 2 3 3 3 2 3 2 2 3 5 5 5 6 6 6 7 7 9 9 9 10 11 9 9
7 3 5 7 10 6 11 5 10 11 8 8 7 6 4 8 10 9 7 5 2 3 3 3 3 3 4 3 4 5 5 5 5 6 7 7 8 11 9 9 8 9 10 9
6 3 4 8 12 4 9 13 11 13 11 11 10 9 6 9 10 10 8 6 4 4 4 4 3 4 4 4 4 5 5 5 5 6 7 7 8 8 11 9 9 10 10 13
11 8 6 3 10 2 6 9 13 14 14 14 12 11 8 9 11 10 8 7 6 5 5 4 4 4 4 5 5 5 6 5 6 6 8 8 8 9 10 11 11 14 14 16
Wind_Direction
209 226 270 26 15 0 13 19 88 91 12 89 94 106 96 88 100 95 97 83 83 71 65 56 49 37 37 42 34 26 15 14 16 358 358 354 345 348 348 349 348 343 347 347
222 221 58 43 340 286 332 55 332 122 171 139 124 106 109 102 85 88 88 90 90 95 76 61 47 47 41 35 29 22 18 12 14 14 5 360 351 345 350 353 342 342 325 324
211 64 91 236 234 78 308 9 44 119 177 197 85 3 257 112 103 101 101 98 86 64 65 64 58 45 34 28 24 18 19 22 17 28 7 5 3 353 344 339 334 342 340 344
294 106 228 241 146 341 126 339 296 225 225 212 180 164 63 70 113 107 93 76 78 74 72 64 47 33 26 19 14 15 20 21 15 10 8 10 2 354 351 344 341 354 353 357
127 195 219 151 30 348 15 309 295 208 242 126 333 284 285 283 129 109 91 83 82 77 62 47 32 21 12 13 11 13 15 15 12 9 6 5 359 358 355 4 2 3 360 2
128 36 4 59 77 354 298 282 345 12 315 154 226 240 152 166 166 119 100 82 74 71 60 40 20 14 8 7 9 7 10 9 7 5 4 2 3 5 4 9 5 2 355 351
175 154 114 316 290 351 271 313 220 239 248 270 175 284 89 136 90 93 96 94 77 56 43 21 14 9 8 7 6 6 4 4 4 2 1 3 9 8 5 3 356 3 352 349
196 144 160 126 343 337 308 328 321 339 335 345 52 7 157 120 116 109 97 87 76 42 24 14 15 6 5 4 4 3 1 4 354 359 1 4 4 5 359 354 357 352 352 349
156 143 119 68 349 311 353 327 5 303 266 273 189 112 93 130 134 134 108 97 77 44 23 13 11 6 2 1 4 1 0 355 6 0 3 2 3 3 357 4 0 353 353 350
138 177 163 115 258 167 314 349 304 242 317 323 190 83 158 187 151 126 130 120 90 13 23 15 12 8 2 1 0 1 1 6 2 1 2 354 4 6 2 3 359 356 347 354
115 281 123 210 322 359 295 198 346 282 310 322 312 98 28 139 146 151 121 99 109 321 20 17 15 7 5 3 4 2 2 358 359 3 356 1 1 7 4 3 6 1 5 357
122 247 280 83 92 62 4 358 331 328 353 5 275 97 50 108 120 137 126 134 82 13 17 15 14 8 7 6 7 5 3 3 3 10 359 11 5 4 4 8 10 5 5 3
158 198 244 312 164 190 270 83 315 245 270 29 295 62 143 120 126 139 144 112 157 337 22 16 9 12 9 8 8 7 4 7 5 11 4 4 7 3 4 5 2 6 4 0
300 259 286 355 24 353 175 226 308 314 283 344 25 115 132 142 155 152 139 166 97 38 27 21 9 13 11 9 7 8 5 9 7 10 8 8 4 12 0 1 1 1 10 7
227 224 267 27 342 286 335 291 326 312 331 298 8 325 73 150 160 156 160 180 112 32 19 19 14 11 11 9 9 4 2 5 9 8 10 11 360 14 359 8 3 358 11 9
207 222 271 255 230 288 271 183 277 249 312 262 283 48 17 63 127 140 185 190 94 46 25 19 17 13 12 10 7 2 359 4 6 7 7 6 4 357 5 15 10 11 13 13
189 161 237 280 142 303 256 239 97 333 260 352 327 41 42 101 131 175 177 192 56 42 28 22 26 16 12 11 7 2 358 1 2 3 3 7 2 4 360 10 9 9 16 13
192 190 256 281 321 256 73 45 19 302 3 334 281 18 5 200 161 211 152 115 90 55 21 34 33 31 25 11 9 1 1 1 358 3 5 6 15 7 6 5 11 3 18 16
197 213 226 290 273 225 177 139 138 251 90 76 355 349 329 130 181 157 134 123 110 119 69 79 87 77 46 18 13 2 4 357 2 10 13 10 15 11 8 10 9 7 12 28
183 249 266 280 293 284 91 102 115 149 233 99 6 315 253 187 242 139 152 141 126 120 115 134 139 95 42 20 20 6 6 357 3 6 10 7 8 12 7 5 7 8 7 32
199 242 246 257 233 342 115 133 133 245 100 97 56 24 210 239 77 119 139 126 131 162 155 148 147 170 62 22 19 7 1 359 359 1 1 358 356 360 352 358 359 4 359 24
223 230 236 235 289 272 128 143 244 111 131 107 90 38 194 144 155 156 142 129 139 165 181 168 193 220 224 358 3 360 356 358 355 356 354 355 353 352 340 349 354 352 11 3
243 289 359 331 36 112 173 18 138 153 145 156 150 133 169 182 187 184 159 154 156 190 200 207 223 232 233 284 344 356 346 350 354 356 351 350 341 340 345 336 348 355 341 350
193 187 266 290 259 198 193 176 172 181 175 174 175 171 164 187 190 190 177 176 188 197 212 221 216 226 250 267 301 326 335 329 342 348 346 338 331 353 352 347 338 336 338 335
7 142 247 261 255 189 208 201 196 194 190 186 182 180 177 183 194 194 191 200 215 215 212 213 232 246 248 257 278 294 309 314 322 320 329 328 333 323 331 333 327 330 328 329
211 262 230 317 17 253 47 207 207 203 202 198 191 185 180 184 187 196 201 206 216 223 218 222 231 251 261 265 271 281 288 299 304 317 321 311 328 322 324 321 319 328 327 332